{"data":{"norad_id":55636,"epoch":"2026-09-20T22:00:03.000096Z","epoch_age_seconds":67071,"freshness":"FRESH","line1":"1 55636U 23021J   26263.91670139  .00084063  00000+0  62483-2 0  9993","line2":"2 55636  70.0003  72.1324 0003760 323.8039  34.7928 15.02509594  5761","mean_motion":15.02509594,"eccentricity":0.000376,"inclination_deg":70.0003,"raan_deg":72.1324,"arg_perigee_deg":323.8039,"mean_anomaly_deg":34.7928,"bstar":0.0062483,"rev_number":576,"period_min":95.839654252484,"perigee_km":556.55238836153,"apogee_km":561.7692363164,"semimajor_km":6937.297812339,"source":"CELESTRAK","updated_at":"2026-09-21T09:00:33.281219Z"}}